GFSMA_sfc_dewp_024.txt.gz
Dewpoint
75 75 73 71 71 74 71 70 68 68 71 72 74 72 70 71 71 72 74 75 74 75 75 75 75 74 74 74 75 74 73 73 73 73 72 72 73 72 72 70 71 71 71
76 75 73 72 71 72 73 72 70 69 69 69 73 72 73 73 73 72 70 73 74 75 75 76 76 75 73 72 74 75 74 73 74 74 74 74 73 73 73 72 71 72 72
75 75 72 71 71 73 71 68 70 67 67 67 71 73 72 72 72 73 73 73 74 75 74 75 76 76 75 73 74 74 74 74 74 74 74 74 74 73 73 73 72 72 72
76 75 74 74 73 72 71 68 66 67 67 67 71 71 72 72 72 74 74 73 74 71 74 75 75 75 75 74 74 73 75 74 74 74 74 74 74 74 74 73 73 73 72
74 75 72 74 75 72 70 68 67 69 70 70 71 71 72 72 72 71 73 74 73 73 73 73 74 74 75 73 70 72 72 73 74 74 74 74 73 73 73 73 73 72 73
75 75 74 74 73 74 72 72 72 71 71 69 66 65 71 71 72 72 72 73 74 74 73 73 72 72 74 73 73 72 72 72 73 74 74 74 74 73 72 72 72 72 72
73 75 74 74 74 73 72 73 72 69 68 70 69 69 70 71 70 69 72 71 72 72 73 73 74 72 73 73 73 73 73 73 73 74 74 74 74 73 73 72 72 72 71
74 75 74 73 73 72 71 72 71 70 70 71 69 69 65 64 65 69 70 71 71 72 72 73 74 72 72 72 72 74 74 74 74 74 74 74 73 73 73 72 72 71 72
73 74 73 74 73 73 72 71 71 70 68 69 71 68 65 62 64 69 70 72 71 73 73 74 73 72 73 72 72 73 73 72 74 74 74 73 73 72 72 71 71 70 71
72 72 73 73 73 73 72 72 72 71 70 69 70 68 68 69 65 63 69 70 72 73 73 73 73 72 73 73 73 73 72 72 73 74 74 74 73 73 72 71 71 71 70
72 70 72 72 73 73 73 72 71 71 71 69 69 68 68 68 69 66 64 67 71 71 71 72 72 71 72 72 73 73 73 73 72 73 74 73 73 73 73 73 72 72 72
73 72 72 72 73 72 72 72 72 72 70 69 70 69 68 66 66 66 66 66 65 67 70 72 72 71 72 72 73 72 73 73 72 72 72 72 73 73 73 73 73 72 72
69 72 72 72 71 73 72 72 72 71 70 69 70 70 68 67 69 68 68 66 64 67 68 69 70 70 72 72 72 71 71 70 70 69 69 70 70 71 71 72 72 72 72
71 72 72 72 71 71 72 73 72 73 73 72 70 71 70 69 71 69 68 66 65 65 68 66 71 71 71 70 70 68 67 67 67 67 66 67 67 68 68 69 70 70 71
69 70 70 71 71 71 72 72 71 71 72 71 71 71 71 70 70 70 70 69 67 63 63 67 69 70 68 68 68 65 65 66 65 65 65 65 66 66 68 68 68 68 68
71 70 69 69 70 71 71 72 71 70 69 69 70 70 69 69 70 71 70 69 70 67 63 67 68 68 66 65 65 63 63 64 64 63 63 63 63 64 64 65 65 66 66
70 69 69 69 68 69 70 70 69 70 69 69 69 69 69 70 70 70 71 70 68 68 66 67 68 66 62 62 61 61 61 61 61 62 61 61 61 61 61 62 62 62 63
69 68 68 69 69 68 68 67 67 67 66 66 66 67 67 69 69 69 70 69 69 69 67 65 67 61 60 61 60 59 59 60 59 60 59 59 58 57 57 57 57 57 57
68 67 67 68 67 66 66 66 66 64 64 64 64 64 64 65 65 65 66 66 67 67 67 66 62 61 60 60 58 58 57 57 59 59 58 58 58 57 56 56 55 53 52
67 67 67 67 67 66 65 65 65 64 63 62 62 62 62 63 64 65 65 65 65 65 64 62 61 60 60 60 60 56 55 56 56 57 57 56 56 56 56 55 54 53 51
65 67 66 65 65 63 60 64 63 63 63 61 61 60 60 60 61 62 63 64 64 63 62 60 59 59 58 58 58 57 55 54 54 56 54 54 54 52 52 52 51 50 49
65 67 66 64 62 59 58 59 63 63 62 62 60 61 61 59 58 59 59 59 61 63 61 59 59 57 58 58 59 56 54 55 52 57 54 53 54 52 52 51 50 50 50
65 66 65 64 62 59 55 57 58 63 62 62 62 61 58 56 59 58 57 56 56 59 60 59 57 58 57 58 59 57 57 56 54 55 54 51 54 52 54 52 50 50 51
63 63 64 63 60 55 55 53 55 62 60 59 58 60 59 57 55 56 51 48 46 48 53 53 55 56 54 59 59 59 57 55 55 56 57 51 52 51 53 54 51 50 50
65 64 64 63 61 57 52 51 56 61 59 57 55 54 57 56 52 53 54 52 50 46 46 49 50 50 50 50 53 57 56 55 53 54 56 53 52 50 50 52 52 51 50
63 62 61 60 57 56 50 49 52 61 58 54 56 54 50 49 49 49 60 58 56 56 54 51 50 50 52 51 53 55 50 50 52 51 55 53 52 51 49 52 52 52 50

GFSMA_sfc_dewp_027.txt.gz
Dewpoint
72 72 69 69 68 72 70 68 68 68 67 67 68 68 72 70 71 72 72 75 74 74 76 76 75 74 75 75 75 74 73 73 72 72 72 72 73 72 71 70 70 71 71
71 71 68 68 68 70 68 67 66 67 67 67 68 67 68 71 71 71 71 72 75 74 75 76 75 75 74 75 75 75 74 73 73 74 74 73 73 73 72 72 71 71 72
72 71 70 69 68 70 70 69 68 67 65 67 66 68 70 71 72 72 71 72 73 74 74 75 76 76 75 73 74 75 75 75 74 74 74 74 74 74 73 73 73 73 72
72 72 72 71 70 69 68 66 67 65 64 65 67 68 69 71 72 72 72 72 73 71 74 74 75 75 76 75 73 75 75 75 74 74 74 74 74 74 74 73 73 73 73
72 72 72 72 71 71 68 65 65 64 66 66 67 67 70 70 71 72 71 72 71 73 72 73 74 74 75 75 74 75 75 75 74 74 74 75 74 73 73 73 73 73 73
69 70 71 72 70 70 69 67 65 65 66 68 70 70 69 65 68 70 71 71 71 72 73 72 72 72 75 75 75 75 74 74 74 74 74 74 74 73 73 73 73 72 73
66 67 71 70 70 69 69 69 69 68 68 68 68 65 68 69 69 68 70 71 71 71 71 72 72 72 72 74 74 73 74 73 73 73 73 74 74 74 73 73 72 72 72
67 71 70 70 70 69 68 69 69 67 67 68 65 63 62 64 67 70 69 71 71 71 71 72 72 72 71 72 72 73 74 74 73 73 73 73 74 74 73 73 72 72 71
71 69 68 69 69 69 68 68 68 67 66 68 68 65 62 59 63 66 68 70 69 71 71 73 72 72 71 71 72 72 73 73 73 74 74 73 73 73 73 73 72 72 71
69 69 69 69 69 69 68 69 69 68 66 65 66 68 68 67 61 60 65 67 69 70 71 70 71 71 71 72 73 72 72 71 72 73 73 73 73 72 72 72 72 72 70
69 69 70 70 69 69 69 69 68 68 67 66 66 66 65 66 67 63 60 63 68 69 70 71 71 70 71 71 71 70 70 69 71 72 72 72 72 73 73 73 73 72 72
69 69 70 70 69 69 68 69 68 68 67 67 68 67 65 64 64 64 62 61 62 64 67 70 70 69 70 69 72 69 68 69 70 71 71 72 72 72 73 73 73 73 73
68 69 69 69 69 69 68 68 68 68 67 66 66 67 67 66 67 66 64 62 61 64 65 66 68 69 71 71 70 69 70 68 69 69 69 70 70 70 71 71 72 72 72
68 68 68 69 69 70 69 68 68 68 67 67 66 66 67 67 68 67 65 63 61 61 63 64 68 68 69 69 70 70 68 68 67 66 66 67 67 67 68 69 69 69 70
68 67 68 68 69 70 70 68 68 68 68 67 67 67 66 67 68 68 68 66 62 59 60 64 64 66 66 66 66 65 65 65 64 65 64 65 65 66 67 67 67 67 68
68 67 68 67 68 68 69 68 68 68 67 68 68 67 68 68 68 68 67 67 67 63 60 64 65 64 65 64 64 63 63 63 63 63 63 62 63 64 64 64 65 65 66
66 66 68 67 66 66 66 66 66 66 65 65 66 67 67 67 67 67 67 66 65 64 62 65 65 63 62 61 61 60 60 60 60 61 60 59 59 59 60 61 61 62 63
66 65 67 66 66 66 65 64 63 63 63 63 63 64 64 65 64 65 65 65 65 65 63 62 62 60 60 59 58 58 59 59 59 60 59 58 58 57 56 56 56 56 56
65 64 65 65 64 64 64 64 63 62 62 61 61 61 62 63 63 63 64 64 63 64 63 63 61 60 59 58 57 57 57 58 59 58 57 57 57 56 55 54 53 52 52
65 64 64 64 62 62 63 63 62 61 61 60 59 59 59 60 62 62 62 62 62 61 61 60 60 59 59 59 58 55 54 56 55 55 55 54 54 55 55 54 52 51 50
63 64 63 61 60 59 61 63 62 62 60 59 58 57 58 60 61 61 60 60 61 60 59 58 58 58 58 58 57 56 54 54 54 54 54 53 52 51 50 50 50 50 50
64 63 61 60 59 56 57 59 62 61 61 59 58 57 57 57 57 57 56 58 60 58 57 56 58 56 57 57 57 55 53 53 51 55 53 52 53 51 50 49 50 50 50
63 62 61 59 57 54 54 56 61 60 59 58 58 55 53 54 53 48 49 50 53 57 59 57 55 56 56 58 57 55 56 53 52 52 51 51 52 52 53 51 50 50 50
61 60 60 57 54 51 52 52 58 57 55 53 54 56 53 51 53 46 42 39 39 45 50 51 51 48 48 56 55 55 52 51 52 52 53 49 48 49 52 50 51 50 50
62 60 61 58 54 49 50 50 56 56 54 51 49 51 51 49 51 53 46 42 41 39 46 50 50 50 51 53 53 56 52 51 50 50 53 48 47 46 48 48 49 50 50
62 58 57 55 55 49 48 48 53 56 53 51 50 47 50 47 48 51 51 49 46 44 43 44 44 45 48 50 53 49 48 48 49 48 47 50 48 47 45 48 49 49 47

GFSMA_sfc_dewp_030.txt.gz
Dewpoint
70 71 71 71 72 72 71 69 69 70 68 68 69 69 69 71 71 72 72 72 74 74 75 75 75 74 73 75 74 73 72 72 72 71 72 72 72 71 71 70 71 71 71
70 71 68 68 68 70 69 68 68 67 67 67 68 67 67 68 71 71 71 72 74 74 74 76 76 75 74 75 75 75 73 73 73 73 73 73 73 73 72 71 70 71 72
71 70 69 68 68 67 69 68 67 66 66 66 67 67 68 69 71 72 71 72 72 74 74 74 76 76 75 74 75 76 75 75 74 74 74 74 73 73 73 73 72 72 73
72 71 71 70 70 69 69 68 67 66 64 64 64 66 68 69 70 71 72 72 72 71 73 74 74 75 75 75 74 75 75 75 74 74 74 74 74 73 74 73 73 73 73
72 72 72 71 70 70 68 67 67 64 64 64 64 66 68 69 70 71 72 71 71 73 72 73 74 74 74 74 75 73 75 75 75 75 75 75 74 74 73 73 73 73 73
68 69 70 70 69 69 68 66 65 64 64 66 69 70 69 69 69 69 70 70 71 71 72 72 72 71 74 74 74 74 74 75 75 75 74 74 74 74 73 73 73 73 73
67 64 67 70 69 68 68 68 66 64 65 67 66 65 65 68 68 66 68 70 70 71 71 72 71 71 72 73 73 73 74 75 75 73 72 73 73 73 73 73 73 73 72
67 66 69 69 69 68 67 67 68 66 67 68 64 62 59 62 66 68 68 70 70 71 71 71 72 71 71 72 72 73 73 73 72 73 72 71 71 73 73 73 73 72 72
70 69 68 68 68 68 67 67 67 66 64 66 66 63 61 60 62 65 67 69 70 69 70 70 71 72 71 71 72 72 72 72 72 72 73 72 72 71 72 73 73 72 72
68 69 69 68 68 68 67 67 68 67 66 64 66 68 67 65 62 61 64 66 68 68 69 69 70 71 71 71 71 72 70 70 70 71 71 72 73 72 71 71 71 71 71
69 69 69 68 68 68 68 67 67 67 66 65 64 65 66 66 65 63 61 63 66 68 69 68 70 70 70 71 70 70 69 69 70 69 69 70 72 72 72 73 73 73 72
67 68 69 68 68 68 67 68 68 67 66 66 66 66 65 64 63 64 62 62 61 63 66 67 68 68 69 68 71 69 68 68 68 68 67 70 71 72 72 71 72 73 73
66 66 67 68 68 68 68 67 66 66 66 65 65 66 67 65 66 65 64 63 62 62 65 68 69 69 71 69 69 68 68 67 68 68 68 68 69 70 70 71 71 71 72
65 66 67 68 68 69 68 68 67 67 66 66 64 65 66 66 67 66 65 64 62 61 62 65 67 68 69 70 70 69 67 67 66 66 66 66 67 67 68 68 69 69 69
66 66 68 67 68 68 68 67 67 67 67 66 66 65 65 65 67 67 67 66 63 59 59 64 64 66 66 66 66 64 64 65 65 64 64 64 64 64 65 66 66 67 67
65 66 67 66 66 66 66 66 65 65 65 66 67 66 66 66 66 67 67 67 66 63 60 64 64 64 64 64 64 62 62 62 62 62 61 61 62 62 62 63 63 64 65
63 67 67 65 65 64 64 63 63 63 63 63 64 65 64 64 65 66 66 66 65 65 61 62 62 62 61 60 59 59 60 59 60 60 60 59 59 59 59 60 60 61 62
64 65 64 63 64 63 62 62 62 62 61 61 61 62 63 63 63 64 64 64 64 64 62 60 60 60 59 59 59 58 58 59 59 59 58 58 57 57 56 56 56 55 56
63 64 63 62 62 62 62 61 60 60 59 59 59 59 59 61 61 61 62 62 61 62 62 61 59 59 58 58 57 57 57 57 57 57 57 57 57 56 55 54 53 52 51
63 62 62 61 61 62 62 61 60 59 58 57 57 58 59 61 61 60 61 60 60 61 61 60 59 58 58 57 57 55 54 55 53 55 55 53 54 54 53 52 51 50 50
63 61 60 59 58 59 60 61 60 59 57 56 56 57 58 58 58 60 59 59 58 58 59 59 58 58 58 56 55 56 54 53 54 54 53 52 50 49 49 50 51 51 50
62 60 59 58 56 54 55 59 60 60 59 57 56 55 55 54 52 55 57 60 59 56 55 57 57 57 57 56 55 54 52 52 51 54 51 52 51 48 48 48 50 50 50
61 59 58 56 52 52 54 58 59 56 56 56 53 52 51 50 47 44 48 52 55 58 58 56 54 54 56 58 56 54 54 54 52 52 51 51 53 52 50 49 50 50 50
61 58 57 53 50 50 52 55 56 53 53 53 54 52 50 49 48 40 39 39 41 48 51 51 49 50 55 56 55 54 52 50 51 52 52 48 50 49 51 48 51 50 50
60 59 56 53 50 48 50 51 54 51 49 48 49 50 48 48 52 49 43 42 41 40 46 50 52 52 53 53 55 53 52 50 48 49 53 47 46 44 46 46 47 50 50
59 57 54 53 51 47 48 48 54 52 49 48 47 45 49 46 49 50 46 45 46 47 44 45 45 47 47 49 51 48 48 49 51 47 47 49 46 46 44 46 47 47 46

GFSMA_sfc_dewp_033.txt.gz
Dewpoint
69 69 71 71 71 72 71 70 70 71 69 69 70 70 70 71 71 71 72 73 75 74 74 74 75 74 73 74 74 73 73 71 72 72 71 73 71 71 70 72 71 70 70
69 70 69 69 69 69 70 69 69 69 68 67 67 68 68 68 69 71 71 72 74 74 74 74 75 75 74 73 74 74 73 72 72 73 73 73 73 73 71 70 71 71 71
70 70 69 67 68 68 69 68 68 67 66 66 66 68 67 67 68 70 71 71 72 74 74 74 75 75 76 75 75 75 75 74 74 74 73 73 73 73 73 72 71 71 72
66 70 71 69 69 68 68 68 67 66 65 64 64 65 66 67 67 69 71 71 71 71 73 74 73 74 75 75 75 75 75 74 74 74 74 74 74 73 73 73 73 72 72
70 70 70 70 70 69 68 67 67 66 64 63 63 64 65 66 67 69 70 71 71 72 71 72 74 73 74 74 74 75 75 75 75 75 74 74 74 74 73 73 73 73 73
71 70 70 70 69 69 68 67 66 66 65 64 65 67 67 67 68 69 69 70 71 71 72 71 71 71 73 74 73 74 74 74 74 75 75 74 74 73 73 73 73 73 73
66 66 65 68 68 68 68 67 65 64 63 65 64 63 64 66 68 67 67 69 69 71 71 71 71 71 72 73 72 72 73 73 73 73 73 73 73 72 72 72 71 72 72
66 65 66 68 68 68 67 67 67 66 64 66 63 62 61 61 64 67 67 68 68 70 70 71 71 71 71 71 72 73 73 73 73 73 72 71 71 71 71 71 71 71 71
69 68 68 67 67 67 66 66 66 66 64 67 65 62 59 59 62 64 66 67 68 69 69 70 71 71 71 70 71 71 72 72 72 72 73 73 72 71 71 71 71 72 72
68 69 68 68 67 67 66 66 67 66 64 63 66 66 64 64 61 60 63 64 67 68 68 68 69 70 70 70 71 72 71 71 71 71 70 71 71 72 72 72 72 71 71
68 68 68 68 67 67 67 67 66 66 65 64 64 63 64 65 66 62 60 62 64 66 68 68 68 69 70 71 70 71 70 70 70 71 69 69 70 72 72 71 72 72 73
66 66 68 68 67 67 67 66 67 66 66 65 64 64 64 63 64 62 61 62 62 64 66 67 67 69 69 68 70 69 69 68 68 69 68 68 69 70 71 71 71 71 71
64 65 66 67 67 67 67 66 66 66 65 65 65 64 65 64 65 64 63 63 62 63 66 67 68 70 69 69 69 69 69 68 67 66 67 67 68 68 69 70 70 70 71
64 66 67 67 67 67 67 66 66 66 65 64 64 64 65 65 66 65 64 63 62 62 63 65 67 67 67 67 68 67 66 66 65 65 65 65 66 66 67 68 68 69 69
65 67 67 65 66 66 66 66 65 65 65 65 65 64 64 64 67 67 66 65 63 60 60 64 64 65 65 65 65 63 63 64 63 63 62 63 63 64 64 65 65 66 66
66 65 64 64 64 63 63 63 63 63 63 65 65 65 65 65 65 66 66 66 65 63 60 64 63 63 63 62 63 60 61 61 62 61 60 60 61 61 62 62 63 64 64
64 63 63 63 62 62 62 62 61 61 61 61 62 62 62 63 64 65 66 66 65 64 62 62 62 61 60 59 59 59 59 59 59 60 60 59 59 59 59 59 60 60 61
63 62 62 62 62 61 61 61 60 60 59 59 59 60 61 62 62 62 63 63 64 65 63 59 60 59 58 58 58 58 58 58 58 59 59 58 57 56 56 55 55 55 55
62 62 61 61 61 60 60 59 58 57 57 57 58 59 60 61 61 61 60 60 60 62 61 60 58 59 58 58 57 57 56 56 57 56 56 57 55 54 54 53 52 51 50
62 60 60 60 60 60 60 59 58 56 56 56 57 58 59 58 58 59 59 59 61 61 61 59 58 57 57 57 57 55 54 54 53 54 54 53 53 53 53 52 50 50 50
61 59 58 58 58 58 59 59 58 56 55 55 55 55 55 58 60 61 58 57 57 60 59 58 58 57 57 55 55 55 53 53 53 53 51 51 48 48 49 50 50 50 49
59 59 57 56 54 53 56 60 59 57 56 55 53 50 51 51 53 57 59 60 58 56 58 58 57 57 57 56 55 54 52 52 51 53 51 51 49 49 49 49 50 50 50
59 58 55 53 51 52 55 57 58 56 54 52 51 48 46 45 45 46 52 54 55 57 57 56 55 56 57 57 55 53 53 54 52 53 51 51 52 50 48 49 50 49 50
59 57 54 52 50 50 53 54 55 54 53 52 51 50 47 45 43 41 40 42 44 48 48 50 51 53 57 57 56 55 55 51 51 51 51 48 50 48 49 47 51 50 49
59 57 54 51 49 48 50 52 52 50 49 48 49 49 48 49 50 49 43 41 41 42 48 51 51 51 52 55 54 52 51 50 50 52 54 46 45 44 48 45 47 50 50
58 55 52 51 50 47 47 50 51 49 47 46 46 44 48 48 51 48 46 46 47 46 44 43 45 45 46 47 50 46 50 51 51 50 51 50 44 44 43 45 45 46 45

GFSMA_sfc_dewp_036.txt.gz
Dewpoint
72 70 71 72 73 72 73 73 73 73 72 72 72 71 71 72 72 72 72 72 73 74 75 73 73 73 73 74 74 73 73 72 71 73 72 72 72 72 72 71 71 70 70
70 70 71 71 71 72 72 72 71 72 72 70 69 70 70 70 71 72 71 73 74 74 74 74 73 74 74 74 74 74 73 73 72 73 73 72 73 73 72 71 72 71 71
71 71 71 70 70 69 71 71 70 70 70 69 68 68 69 69 69 69 71 72 72 73 74 74 74 74 75 75 75 75 75 74 73 73 74 73 73 73 73 73 72 72 72
68 68 70 71 70 70 69 69 69 68 68 68 67 67 68 67 68 68 70 72 72 71 73 74 73 73 74 75 75 75 75 75 74 74 74 73 73 73 73 73 73 73 72
70 70 70 71 72 71 70 69 68 68 67 66 65 66 66 66 66 66 69 70 71 73 72 72 73 73 74 73 74 74 75 75 74 73 74 74 74 73 73 73 73 73 73
71 71 71 71 71 70 70 69 68 68 67 66 65 66 66 65 67 68 67 69 71 72 73 73 73 72 73 73 73 73 73 73 73 73 74 74 73 73 72 73 73 73 73
67 68 68 69 70 70 70 69 68 67 66 66 66 65 66 67 68 68 69 69 70 72 72 73 73 73 73 73 73 73 73 73 73 73 73 72 72 72 72 72 72 72 72
69 67 67 69 69 69 69 69 68 67 66 66 65 64 64 65 65 67 69 69 69 71 71 72 72 73 73 73 73 73 74 73 73 73 72 72 70 72 71 71 71 71 71
70 69 69 69 69 68 68 68 68 67 65 67 66 65 62 61 64 65 67 69 69 70 71 71 72 72 72 73 73 73 73 73 73 73 73 72 72 72 71 71 71 71 70
69 70 69 69 69 69 68 68 68 68 67 65 67 67 67 65 61 59 66 66 69 69 70 71 71 71 72 73 72 72 71 71 72 72 71 71 72 72 71 72 72 71 71
68 68 69 69 68 69 69 68 68 68 67 66 66 66 67 67 67 65 62 64 66 68 68 68 70 71 72 71 72 72 70 70 70 70 70 70 70 70 71 71 71 71 71
67 67 68 68 69 69 69 68 68 68 68 67 67 67 66 66 65 64 63 63 63 66 68 69 69 70 70 70 71 70 69 68 68 68 67 67 68 69 69 69 70 71 70
65 67 68 68 68 68 69 68 68 68 68 67 67 67 67 67 67 67 64 64 63 65 66 67 68 69 70 69 69 68 68 67 66 66 66 66 67 68 68 69 69 69 70
66 68 67 67 67 67 68 67 67 68 67 67 66 67 68 68 69 67 66 64 62 63 64 65 66 66 67 67 67 66 65 65 65 64 64 65 65 66 67 67 68 68 68
66 65 65 65 65 65 65 65 65 65 66 67 67 67 67 68 68 68 68 67 65 60 61 64 65 65 64 64 64 63 63 63 63 62 62 62 63 64 64 65 65 65 66
66 65 64 64 64 64 64 64 64 64 64 65 65 66 66 67 68 68 68 68 67 64 61 64 63 62 62 62 62 61 61 61 62 61 60 60 61 61 62 62 63 63 64
64 64 63 63 63 63 63 63 62 62 62 63 63 64 64 65 66 67 68 68 67 66 62 62 62 61 60 59 59 59 59 59 60 60 59 59 58 58 59 59 59 60 61
64 63 63 62 62 61 60 60 60 60 60 60 61 62 62 63 63 64 65 66 67 66 63 59 60 58 58 59 58 57 57 57 58 59 57 56 56 55 54 54 54 55 55
63 62 62 62 61 60 59 59 59 59 59 59 60 61 61 62 61 62 63 63 64 64 63 61 59 59 58 58 57 56 55 55 56 56 56 55 54 54 53 52 51 51 51
62 61 61 61 61 61 59 58 58 57 57 57 57 58 59 60 61 61 61 62 62 61 61 59 58 57 57 57 57 55 53 54 53 52 53 52 53 53 52 51 50 50 51
61 60 60 59 59 59 59 58 57 57 57 54 54 54 58 60 61 61 61 61 62 61 60 59 58 57 56 56 55 56 53 54 54 54 52 50 48 49 50 51 50 50 50
60 59 58 57 56 57 58 59 59 57 55 52 52 51 52 53 56 58 59 59 60 61 59 59 59 57 57 57 56 55 53 53 52 54 52 52 52 51 50 50 50 50 50
60 58 56 55 55 57 56 57 58 55 54 52 50 49 45 45 51 52 53 53 54 56 58 59 58 57 58 58 56 54 54 54 53 54 53 51 53 51 53 51 50 50 49
59 57 54 53 54 54 54 54 55 55 53 52 52 51 49 49 49 49 49 48 48 51 52 52 54 54 58 59 57 56 56 53 53 53 53 49 50 49 51 53 51 50 50
59 56 54 53 52 52 51 52 54 52 51 50 50 51 52 51 50 49 48 48 48 48 48 51 51 51 53 54 55 55 54 53 52 52 55 51 50 50 50 52 52 50 49
58 53 51 51 50 49 48 50 51 50 49 48 48 48 48 51 49 48 50 49 48 49 48 48 47 47 48 49 49 50 51 52 53 52 54 53 51 49 48 50 51 51 49

GFSMA_sfc_dewp_042.txt.gz
Dewpoint
74 72 74 73 74 77 73 73 73 70 71 71 70 69 68 68 67 66 65 73 74 75 74 74 74 74 75 75 75 74 73 73 72 72 73 72 72 71 72 72 71 70 70
73 72 71 71 68 73 78 77 74 70 69 69 70 70 71 69 68 68 66 68 74 75 74 74 75 75 74 74 74 74 74 73 74 73 73 74 73 73 72 72 72 72 72
73 75 76 71 67 70 75 76 74 73 71 69 70 71 69 70 68 70 69 68 69 74 74 75 75 75 74 74 74 75 75 74 74 74 73 73 74 73 74 72 72 72 73
74 74 70 72 71 76 79 77 72 76 74 70 73 71 68 68 69 69 69 69 67 67 72 75 75 74 74 74 74 74 74 73 73 73 74 74 73 74 74 74 73 73 73
73 76 75 71 74 69 71 69 68 73 72 70 68 68 68 68 68 66 68 69 70 69 68 74 74 74 74 73 74 74 74 73 73 73 72 73 72 72 73 73 74 73 73
73 73 74 72 72 73 76 74 72 70 68 67 67 67 67 67 67 65 65 66 68 69 68 70 70 70 74 75 74 74 74 74 73 73 73 72 72 72 72 72 72 72 72
71 73 75 71 71 71 70 71 70 71 72 71 71 65 65 67 68 65 65 63 64 65 67 68 77 70 69 73 73 74 74 74 74 73 72 73 72 72 72 72 72 72 71
72 72 72 71 72 72 72 72 72 72 70 72 67 66 64 63 64 65 65 65 66 65 66 70 73 73 74 73 72 73 73 73 73 73 73 73 73 72 72 72 71 71 71
71 72 71 72 72 71 66 71 71 71 65 68 70 68 66 57 68 65 67 66 69 68 68 68 70 71 73 71 72 72 73 72 72 72 73 72 72 72 72 72 71 71 71
70 70 71 70 71 68 71 70 70 72 72 70 69 68 70 70 68 68 68 68 70 70 71 70 70 72 73 75 73 72 71 70 71 71 72 72 72 71 71 71 71 71 72
69 68 70 70 71 75 73 73 72 73 73 72 71 69 68 69 71 70 67 63 67 69 70 71 71 72 72 73 72 70 69 68 68 69 69 69 69 69 69 70 70 70 70
66 69 70 71 71 73 72 72 72 71 71 70 68 69 70 67 65 70 69 68 67 67 68 69 70 72 72 72 70 69 68 67 67 67 68 68 68 68 69 69 69 69 70
65 69 70 71 70 72 72 73 72 71 70 72 71 71 70 72 73 73 71 68 65 67 67 68 68 69 68 70 69 68 67 66 66 66 66 67 67 68 68 68 69 69 69
65 68 69 69 70 70 71 71 69 69 71 73 70 72 73 72 74 73 71 69 66 65 66 64 65 66 67 68 66 66 65 65 64 64 64 64 65 66 66 67 67 67 67
65 67 67 67 68 69 69 70 68 69 69 69 70 71 72 73 74 74 72 70 69 64 64 64 63 64 65 65 65 65 65 63 63 62 62 62 62 63 63 64 64 65 65
67 68 67 67 67 67 68 68 67 68 69 68 68 70 70 71 73 74 73 69 69 68 65 65 62 62 63 63 64 63 62 61 61 61 60 60 60 60 61 62 62 63 63
67 67 66 66 66 67 67 67 67 66 66 67 67 67 67 69 68 70 73 72 72 69 63 61 61 61 60 60 60 61 60 60 59 59 58 57 57 57 58 58 59 59 60
66 66 66 66 65 65 66 65 64 65 64 64 65 66 66 65 68 68 68 68 71 70 64 59 59 58 58 59 59 59 57 57 57 57 56 55 54 54 54 54 54 55 56
65 65 65 64 64 64 64 64 64 64 64 64 64 65 65 66 65 64 66 65 65 67 65 60 58 59 58 58 57 56 56 56 55 56 56 54 53 52 52 53 53 53 52
65 65 64 63 63 62 62 62 62 63 63 63 64 64 63 64 65 65 65 66 66 63 62 60 58 58 58 58 58 56 54 53 53 52 53 54 54 53 52 52 52 53 53
65 65 64 64 62 60 59 61 58 61 61 61 62 61 62 61 59 61 61 65 66 63 60 59 58 58 57 57 57 57 55 54 54 55 55 56 54 54 52 51 52 52 52
65 65 63 62 61 57 59 59 59 57 58 57 58 59 60 61 59 58 59 59 61 64 63 60 59 59 59 58 58 57 55 56 55 56 56 55 55 53 53 50 50 51 52
65 64 63 63 63 61 57 56 58 57 56 57 57 56 54 54 58 58 59 58 57 57 59 62 60 60 61 61 61 59 59 58 56 56 57 54 56 54 54 51 49 49 50
65 63 63 64 63 60 55 55 57 59 59 58 58 58 56 53 54 56 55 52 49 52 55 50 56 56 58 59 59 58 60 60 58 56 57 52 52 51 51 51 50 48 49
65 63 63 63 62 60 53 54 57 58 58 58 58 58 58 54 51 52 54 53 50 45 48 52 53 52 51 51 51 48 52 48 54 57 55 52 51 49 49 48 50 50 49
64 60 61 62 58 61 51 51 54 54 56 54 57 57 52 54 51 51 55 53 52 51 50 50 51 51 51 51 51 51 42 40 41 47 59 50 54 52 48 52 50 49 47

GFSMA_sfc_dewp_045.txt.gz
Dewpoint
75 74 73 74 73 77 74 75 73 72 71 70 69 69 69 71 68 68 72 75 75 75 74 74 74 75 75 75 74 73 73 73 73 72 73 72 73 72 71 72 72 70 70
73 72 72 71 71 72 74 75 77 71 71 71 68 69 71 70 70 71 66 73 76 75 75 74 75 75 74 75 75 75 74 73 74 74 73 73 74 73 72 72 72 72 72
73 73 70 68 72 74 75 75 76 76 73 71 72 72 72 71 67 72 71 72 72 75 75 75 75 75 75 75 74 74 74 74 74 73 74 73 73 74 73 73 73 73 73
72 73 74 70 70 71 73 76 77 72 75 73 75 69 71 71 73 72 70 68 73 69 73 75 75 75 75 75 74 73 74 73 72 73 73 73 73 73 73 74 73 73 73
72 74 71 70 74 70 78 74 71 73 72 72 72 74 70 70 71 67 69 69 71 70 70 73 74 75 75 73 74 72 72 73 72 72 72 72 72 72 73 73 73 73 73
71 76 74 75 74 76 77 70 74 75 70 70 68 65 70 70 69 69 66 65 69 70 68 70 74 71 75 75 74 74 74 73 73 72 73 73 72 72 73 72 72 73 73
74 75 77 76 76 76 73 73 71 72 67 68 68 66 68 69 68 68 67 63 65 69 68 68 70 70 72 74 74 74 74 74 74 72 73 73 73 73 73 72 72 72 72
72 72 73 74 72 73 73 72 72 71 71 72 69 72 66 64 66 65 67 65 63 64 65 68 70 74 75 72 73 74 74 74 73 74 73 73 73 72 72 72 72 71 72
70 70 71 70 72 72 65 74 72 72 72 73 72 69 66 67 67 66 69 70 71 70 65 69 72 71 75 73 73 73 73 73 72 72 73 73 73 72 71 72 72 71 72
69 68 70 70 71 69 73 70 75 73 73 70 73 73 68 70 69 68 72 73 72 70 72 72 73 73 73 74 73 72 71 71 72 71 72 72 72 71 70 71 72 71 71
68 68 70 73 72 74 74 73 73 73 74 72 72 72 71 68 67 70 66 69 68 69 70 71 72 73 73 71 70 70 69 68 69 69 69 69 69 69 69 69 69 70 70
67 70 70 71 72 72 73 74 73 72 73 73 73 69 67 71 70 67 69 67 67 67 68 69 69 69 70 70 70 69 68 67 68 68 68 68 68 69 69 69 70 70 70
65 70 71 71 70 72 72 73 73 73 72 72 72 72 69 71 71 73 71 67 66 68 66 66 68 69 69 70 68 67 67 66 65 66 66 66 67 67 67 68 68 69 69
69 69 70 70 70 71 71 71 69 69 70 71 71 73 73 73 74 74 72 68 65 67 67 63 65 66 67 67 67 66 64 64 64 64 64 64 64 65 66 66 66 66 66
66 68 68 68 69 69 69 70 68 70 70 70 71 71 73 74 75 74 73 72 66 64 64 64 63 65 66 66 66 64 63 63 63 62 62 62 62 63 63 63 63 64 64
69 69 67 67 68 69 70 71 68 69 68 67 68 70 71 73 73 73 73 72 72 69 63 64 62 63 63 64 64 63 62 61 61 60 60 60 60 61 61 61 61 62 62
67 67 66 67 66 67 67 67 68 67 67 67 68 68 68 70 73 71 73 73 72 72 62 60 61 61 61 61 60 61 61 61 59 58 57 57 57 57 57 58 59 59 60
67 66 66 66 65 65 66 65 64 66 65 65 65 67 67 65 68 69 67 70 71 71 63 58 59 58 58 59 60 59 58 58 57 56 55 55 54 54 54 55 55 56 56
65 64 65 65 64 64 64 64 64 64 64 64 65 65 65 67 66 66 66 66 65 66 63 59 57 58 58 58 57 57 56 57 56 57 55 54 53 53 54 54 54 54 54
64 64 65 64 63 63 63 62 63 63 63 63 64 63 62 63 65 66 66 68 66 62 61 59 57 57 58 58 58 56 54 54 53 53 55 55 54 54 53 53 53 54 54
64 64 64 63 62 60 59 60 62 62 62 62 62 60 61 61 61 61 63 66 67 61 59 58 57 57 57 57 57 57 56 55 55 55 54 54 54 54 52 53 52 53 54
65 65 64 62 61 55 59 60 60 59 59 60 60 60 62 61 60 59 59 59 63 65 63 59 58 58 60 59 58 57 56 56 56 57 57 59 61 58 56 51 52 52 54
66 65 64 63 63 60 57 57 61 58 59 59 59 58 55 55 59 59 59 58 57 58 61 64 62 62 61 62 62 60 60 59 58 57 60 57 55 58 55 50 51 51 52
66 65 64 66 64 59 56 55 58 61 60 60 59 58 56 57 54 56 52 50 51 54 56 52 57 55 57 58 60 59 60 60 58 58 59 55 54 56 55 51 50 50 50
66 64 64 66 63 61 54 55 57 60 60 59 60 59 57 54 54 52 54 52 50 46 49 52 50 51 51 51 52 48 58 45 49 56 56 59 54 57 56 52 49 50 50
66 63 65 64 60 62 53 52 53 57 58 57 59 58 53 54 48 48 56 55 54 53 52 54 53 52 53 52 52 56 45 41 42 48 57 51 52 49 48 53 51 48 47

GFSMA_sfc_dewp_048.txt.gz
Dewpoint
75 75 73 73 73 75 75 72 68 65 72 73 72 71 70 69 71 71 73 75 75 75 75 75 75 75 75 75 75 74 73 72 73 73 73 72 73 73 72 73 72 71 71
74 74 71 70 70 74 73 73 72 72 73 72 72 71 70 70 70 71 73 74 75 75 75 76 76 76 75 75 75 75 74 73 74 74 74 73 74 74 73 73 73 73 73
73 73 70 70 71 70 68 70 72 74 73 74 73 70 72 72 71 71 71 72 72 75 76 76 76 76 75 76 75 75 75 75 75 74 74 74 74 74 74 74 73 73 73
73 73 70 73 70 71 69 67 72 72 73 73 73 73 72 71 72 71 72 71 72 70 74 75 75 75 75 75 75 75 74 73 75 73 74 74 74 73 73 73 73 73 73
72 72 73 73 75 73 71 70 74 73 73 73 72 71 71 73 74 69 71 70 72 71 72 73 73 73 75 74 74 75 73 73 73 73 73 72 73 73 72 72 73 73 73
72 73 74 74 76 75 74 73 73 73 72 71 71 70 72 71 72 71 70 69 69 70 71 72 73 73 73 74 75 75 74 73 73 73 73 73 73 73 73 73 72 72 72
73 73 73 74 74 74 73 73 73 72 72 72 71 71 71 71 70 70 70 69 66 69 69 69 73 72 72 73 73 74 75 74 74 74 73 73 73 73 73 73 72 72 72
72 74 73 72 72 73 73 73 73 72 72 73 70 70 67 68 69 68 70 69 67 69 68 70 72 72 71 71 72 73 73 74 74 75 74 73 73 73 72 73 72 72 72
72 71 72 73 74 74 73 73 73 73 71 73 73 70 66 65 68 70 69 69 70 71 70 72 71 70 70 69 70 72 72 73 73 74 73 73 73 72 72 72 72 71 71
72 72 72 72 72 73 73 74 74 73 73 70 72 71 70 70 66 65 69 69 70 70 71 72 72 71 69 69 72 71 71 71 72 72 71 71 71 71 71 71 71 71 71
71 70 72 73 73 74 74 74 74 74 73 71 71 71 70 69 69 68 65 67 68 69 70 70 70 72 70 70 69 69 69 69 69 69 69 69 69 69 69 69 69 70 70
70 72 71 72 73 73 74 74 73 72 73 73 72 72 70 69 68 68 66 66 65 66 67 68 68 69 70 70 70 69 68 67 67 68 68 69 69 69 69 69 69 69 69
69 70 71 72 73 73 73 73 73 73 72 72 71 71 71 70 70 70 68 66 64 66 65 65 67 68 69 68 67 67 67 66 65 66 66 66 67 67 67 68 68 68 68
70 71 70 71 71 72 72 72 71 71 71 72 71 71 71 72 71 70 68 66 64 66 66 63 65 66 67 68 66 66 64 65 64 64 63 64 64 64 65 64 65 65 66
69 70 69 69 70 70 71 72 70 69 71 71 71 71 71 71 71 72 71 68 67 63 62 63 62 64 65 66 64 62 62 63 63 62 62 61 61 62 63 62 63 63 63
70 70 68 68 69 69 70 70 68 69 68 68 68 69 70 71 71 72 71 71 69 67 62 63 62 62 63 64 64 63 62 61 61 60 59 59 60 60 61 61 61 61 62
68 69 69 68 68 69 69 70 69 67 67 67 68 67 68 69 70 71 70 70 69 67 59 59 61 61 60 60 60 60 60 59 57 58 57 57 57 57 58 58 59 59 60
70 69 68 68 68 68 68 68 66 66 65 63 65 66 66 66 67 68 67 69 69 68 60 57 58 58 58 58 59 59 58 58 56 56 55 55 55 55 55 55 55 56 57
69 67 68 68 67 67 67 67 67 66 65 63 64 64 65 67 66 68 67 65 64 63 61 57 56 58 57 58 57 57 57 58 57 56 55 54 54 54 54 55 55 54 54
68 68 68 67 67 66 65 66 65 66 64 63 63 62 62 62 64 67 67 65 63 60 59 57 56 57 57 58 58 56 55 55 55 54 55 56 54 54 54 55 55 55 54
68 68 67 67 66 62 56 62 65 64 65 64 62 61 61 61 61 61 64 65 62 59 58 57 57 57 57 57 57 57 56 55 57 56 54 55 54 54 54 54 54 55 54
68 69 67 66 62 55 59 60 63 63 64 64 64 63 63 61 59 59 59 59 64 62 59 58 58 57 58 59 59 58 58 57 56 57 59 57 58 55 53 51 52 54 54
69 68 67 66 63 60 58 60 60 64 63 63 62 61 58 56 60 58 58 58 57 59 61 63 61 61 60 60 61 60 59 59 58 59 59 58 59 57 53 52 52 53 54
68 68 68 67 64 58 57 57 59 65 64 63 62 60 60 58 55 56 53 51 51 53 56 53 55 53 53 54 57 57 60 60 60 59 60 55 57 57 54 51 52 52 53
68 67 67 66 64 61 55 56 56 65 63 62 61 59 59 58 51 51 55 53 52 47 48 50 50 50 50 51 53 54 57 57 55 58 59 57 56 56 53 51 50 52 52
67 65 66 66 62 63 53 53 54 59 62 60 61 58 50 51 49 48 60 58 54 52 52 52 52 52 53 51 56 55 52 48 48 55 51 52 55 54 52 53 50 50 49